Location: Madingley
(52.2167°N, 0.0500°E)
Time: 08:30:09
(UTC+00:00)

Cosmos 1634 Rocket - Pass Details

Date: 15 May 2026
Orbit: 960 x 990 km, 82.9° (Epoch: 6 June)

Event Time Altitude Azimuth Distance (km) Brightness Sun altitude
Exits shadow 22:22:33 23° 167° (SSE) 1,910 4.9 -15.9°
Maximum altitude 22:26:25 63° 94° (E) 1,077 4.1 -16.1°
Drops below altitude 10° 22:32:33 10° 15° (NNE) 2,724 7.1 -16.4°
Sets 22:35:05 0° 13° (NNE) 3,679 8.0 -16.6°
